Hourly Data Report for January 14, 2006

TORONTO CITY
ONTARIO

43°40'00.000" N
79°24'00.000" W
112.50 m
6158355
71508
XTO

Download Data

Hourly Data (January 2006)
Hourly Data Report for January 14, 2006
TIME
LST
Temp Definition
°C
Dew Point Definition
°C
Rel Hum Definition
%
Precip. Amount Definition
mm

Wind Dir Definition
10's deg

Wind Spd Definition
km/h
Visibility Definition
km
Stn Press Definition
kPa
Hmdx Definition


Wind Chill Definition


Weather Definition


00:00 8.5 7.4 93   LegendMM LegendMM   98.12     LegendNANA
01:00 8.2 7.1 93   LegendMM LegendMM   98.09     LegendNANA
02:00 8.5 8.0 97   LegendMM LegendMM   97.95     LegendNANA
03:00 5.8 4.5 91   LegendMM LegendMM   98.06     LegendNANA
04:00 5.0 4.2 95   LegendMM LegendMM   98.02     LegendNANA
05:00 4.3 3.2 93   LegendMM LegendMM   97.96     LegendNANA
06:00 2.9 1.3 89   LegendMM LegendMM   98.10     LegendNANA
07:00 1.5 -0.2 88   LegendMM LegendMM   98.24     LegendNANA
08:00 -0.1 -2.0 87   LegendMM LegendMM   98.34     LegendNANA
09:00 -1.1 -4.0 81   LegendMM LegendMM   98.57     LegendNANA
10:00 -1.6 -4.6 80   LegendMM LegendMM   98.77     LegendNANA
11:00 -2.1 -5.7 76   LegendMM LegendMM   98.94     LegendNANA
12:00 -2.4 -6.6 73   LegendMM LegendMM   99.01     LegendNANA
13:00 -2.5 -7.1 71   LegendMM LegendMM   99.09     LegendNANA
14:00 -2.5 -7.5 68   LegendMM LegendMM   99.20     LegendNANA
15:00 -2.8 -8.8 63   LegendMM LegendMM   99.33     LegendNANA
16:00 -2.7 -8.5 64   LegendMM LegendMM   99.48     LegendNANA
17:00 -3.3 -8.4 68   LegendMM LegendMM   99.66     LegendNANA
18:00 -3.9 -8.8 69   LegendMM LegendMM   99.76     LegendNANA
19:00 -4.4 -10.3 63   LegendMM LegendMM   99.86     LegendNANA
20:00 -4.9 -12.5 55   LegendMM LegendMM   99.95     LegendNANA
21:00 -5.5 -13.3 54   LegendMM LegendMM   100.01     LegendNANA
22:00 -6.1 -13.0 58   LegendMM LegendMM   100.09     LegendNANA
23:00 -6.8 -13.0 61   LegendMM LegendMM   100.11     LegendNANA

Notes on Data Quality.

Legend

  • E = Estimated
  • M = Missing
  • NA = Not Available*
  • [empty] = Indicates an unobserved value
Date modified: